{"data":{"norad_id":55650,"epoch":"2026-05-25T00:12:48.808800Z","epoch_age_seconds":81118,"freshness":"FRESH","line1":"1 55650U 23021Y   26145.00889825  .00000458  00000+0  46208-4 0  9997","line2":"2 55650  69.9993 352.0140 0002334 273.5800  86.5092 14.98332647180220","mean_motion":14.98332647,"eccentricity":0.0002334,"inclination_deg":69.9993,"raan_deg":352.014,"arg_perigee_deg":273.58,"mean_anomaly_deg":86.5092,"bstar":4.6208e-5,"rev_number":18022,"period_min":96.106829340147,"perigee_km":570.4255322171,"apogee_km":573.66987843754,"semimajor_km":6950.1847053273,"source":"CELESTRAK","updated_at":"2026-05-25T13:38:17.869561Z"}}